EW6136 Weather Reports


Display with metric or nautical units.
time (UTC)temp
F
wind
direction
speed
MPH
gust
MPH
rain 1hr
in
rain 24hr
in
rain mn
in
humidity
%
barometer
mb
20200703103020 61 252 3.0 8.0 0.00 0.00 0.00 67 1010.5
20200703101535 60 210 3.0 11.0 0.00 0.00 0.00 68 1010.5
20200703100056 59 273 3.0 10.0 0.00 0.00 0.00 67 1010.5
20200703094740 59 238 2.0 7.0 0.00 0.00 0.00 66 1010.5
20200703093046 60 312 3.0 8.0 0.00 0.00 0.00 63 1010.4
20200703091536 61 263 1.0 7.0 0.00 0.00 0.00 65 1010.5
20200703090017 61 223 0.0 7.0 0.00 0.00 0.00 68 1010.5
20200703084534 60 236 2.0 8.0 0.00 0.00 0.00 64 1010.7
20200703083113 61 224 2.0 7.0 0.00 0.00 0.00 62 1010.6
20200703081636 60 307 2.0 9.0 0.00 0.00 0.00 66 1010.7
20200703080110 60 251 1.0 6.0 0.00 0.00 0.00 66 1010.5
20200703074533 58 195 2.0 7.0 0.00 0.00 0.00 68 1010.6
20200703073047 58 234 1.0 9.0 0.00 0.00 0.00 71 1010.7
20200703071513 58 252 2.0 8.0 0.00 0.00 0.00 69 1010.7
20200703070056 57 249 0.0 6.0 0.00 0.00 0.00 69 1010.7
20200703064628 56 121 0.0 5.0 0.00 0.00 0.00 72 1010.8
20200703063054 56 186 1.0 8.0 0.00 0.00 0.00 71 1010.6
20200703061521 56 212 0.0 5.0 0.00 0.00 0.00 70 1010.5
20200703060143 56 207 0.0 2.0 0.00 0.00 0.00 72 1010.5
20200703054614 55 217 0.0 4.0 0.00 0.00 0.00 74 1010.6
20200703053152 55 246 0.0 2.0 0.00 0.00 0.00 76 1010.6
20200703051550 54 245 0.0 2.0 0.00 0.00 0.00 77 1010.7
20200703050023 54 210 0.0 1.0 0.00 0.00 0.00 78 1010.6
20200703044512 54 234 0.0 2.0 0.00 0.00 0.00 79 1010.6
20200703043226 53 264 0.0 2.0 0.00 0.00 0.00 79 1010.6
20200703041653 54 217 0.0 2.0 0.00 0.00 0.00 80 1010.5
20200703040105 53 259 0.0 1.0 0.00 0.00 0.00 81 1010.5
20200703034533 53 243 0.0 3.0 0.00 0.00 0.00 81 1010.5
20200703033047 53 232 0.0 4.0 0.00 0.00 0.00 79 1010.4
20200703031521 53 229 0.0 3.0 0.00 0.00 0.00 78 1010.2
20200703030104 53 26 0.0 2.0 0.00 0.00 0.00 78 1010.2
20200703024641 52 233 0.0 2.0 0.00 0.00 0.00 78 1010.1
20200703023055 52 261 0.0 1.0 0.00 0.00 0.00 79 1010.3
20200703021542 52 245 0.0 1.0 0.00 0.00 0.00 80 1010.2
20200703020049 52 230 0.0 1.0 0.00 0.00 0.00 79 1010.3
20200703014548 51 247 0.0 3.0 0.00 0.00 0.00 81 1010.5
20200703013213 50 236 0.0 2.0 0.00 0.00 0.00 82 1010.5
20200703011617 49 249 0.0 1.0 0.00 0.00 0.00 83 1010.5
20200703010052 50 200 0.0 3.0 0.00 0.00 0.00 82 1010.4
20200703004643 50 176 0.0 2.0 0.00 0.00 0.00 82 1010.4
20200703003111 50 223 0.0 5.0 0.00 0.00 0.00 83 1010.3
20200703001517 49 235 0.0 1.0 0.00 0.00 0.00 84 1010.3
20200703000202 49 284 0.0 3.0 0.00 0.00 0.00 84 1010.3
20200702234702 49 240 0.0 2.0 0.00 0.00 0.00 84 1010.3
20200702233052 49 250 0.0 2.0 0.00 0.00 0.00 83 1010.2
20200702231619 49 319 0.0 2.0 0.00 0.00 0.00 84 1010.2
20200702230057 50 24 0.0 1.0 0.00 0.00 0.00 84 1010.1
20200702224532 50 194 0.0 0.0 0.00 0.00 0.00 83 1010.1
20200702223125 51 229 0.0 1.0 0.00 0.00 0.00 82 1010.1
20200702221643 52 171 0.0 1.0 0.00 0.00 0.00 81 1010.1
20200702220055 52 319 0.0 4.0 0.00 0.00 0.00 80 1010.0
20200702214550 52 224 0.0 2.0 0.00 0.00 0.00 81 1010.0
20200702213024 52 255 1.0 7.0 0.00 0.00 0.00 82 1010.0
20200702211517 52 203 0.0 3.0 0.00 0.00 0.00 82 1009.9
20200702210150 52 238 0.0 1.0 0.00 0.00 0.00 83 1009.9
20200702204707 52 311 0.0 1.0 0.00 0.00 0.00 83 1009.8
20200702203055 52 252 0.0 2.0 0.00 0.00 0.00 82 1009.7
20200702201603 53 226 0.0 2.0 0.00 0.00 0.00 81 1009.7
20200702200023 53 243 0.0 3.0 0.00 0.00 0.00 80 1009.7
20200702194519 54 226 0.0 2.0 0.00 0.00 0.00 79 1009.7
20200702193029 55 333 0.0 3.0 0.00 0.00 0.00 78 1009.5
20200702191537 55 267 0.0 4.0 0.00 0.00 0.00 78 1009.4
20200702190012 56 207 0.0 4.0 0.00 0.00 0.00 77 1009.3
20200702184536 56 203 0.0 6.0 0.00 0.00 0.00 75 1009.3
20200702183015 57 257 1.0 4.0 0.00 0.00 0.00 73 1009.2
20200702181512 58 243 1.0 6.0 0.00 0.00 0.00 70 1009.1
20200702180018 58 268 1.0 6.0 0.00 0.00 0.00 73 1009.1
20200702174841 59 220 0.0 5.0 0.00 0.00 0.00 70 1008.9
20200702173128 60 240 1.0 5.0 0.00 0.00 0.00 68 1008.9
20200702171550 60 254 1.0 6.0 0.00 0.00 0.00 66 1008.7
20200702170032 61 250 2.0 8.0 0.00 0.00 0.00 65 1008.6
20200702164512 61 280 1.0 6.0 0.00 0.00 0.00 67 1008.5
20200702163018 60 280 0.0 6.0 0.00 0.00 0.00 69 1008.5
20200702161627 60 269 1.0 7.0 0.00 0.00 0.00 70 1008.5
20200702160116 62 274 2.0 6.0 0.00 0.00 0.00 65 1008.5
20200702154617 62 311 1.0 6.0 0.00 0.00 0.00 67 1008.4
20200702153036 62 190 2.0 10.0 0.00 0.00 0.00 60 1008.4
20200702151512 62 264 2.0 7.0 0.00 0.00 0.00 64 1008.2
20200702150035 62 274 2.0 7.0 0.00 0.00 0.00 66 1008.2
20200702144608 61 215 1.0 10.0 0.00 0.00 0.00 69 1008.1
20200702143107 61 278 1.0 5.0 0.00 0.00 0.00 70 1008.1
20200702141604 62 225 3.0 8.0 0.00 0.00 0.00 66 1008.1
20200702140030 60 294 1.0 9.0 0.00 0.00 0.00 70 1008.0
20200702134546 62 291 2.0 7.0 0.00 0.00 0.00 67 1008.0
20200702133010 61 255 1.0 7.0 0.00 0.00 0.00 69 1007.9
20200702131710 63 235 2.0 10.0 0.00 0.00 0.00 65 1007.8
20200702130224 62 195 2.0 6.0 0.00 0.00 0.00 69 1007.7
20200702124534 61 308 2.0 8.0 0.00 0.00 0.00 68 1007.7
20200702123032 62 265 2.0 7.0 0.00 0.00 0.00 66 1007.5
20200702121518 63 253 1.0 9.0 0.00 0.00 0.00 65 1007.3
20200702120009 64 250 1.0 6.0 0.00 0.00 0.00 62 1007.2
20200702114644 64 190 2.0 9.0 0.00 0.00 0.00 64 1007.2
20200702113216 63 349 1.0 7.0 0.00 0.00 0.00 65 1007.0
20200702111535 62 245 1.0 8.0 0.00 0.00 0.00 64 1006.9
20200702110037 62 212 1.0 7.0 0.00 0.00 0.00 63 1006.8
20200702104524 63 283 2.0 11.0 0.00 0.00 0.00 62 1006.6